Вернуться в каталог

CZ-6A DEB

АктивенPO
NORAD 56600·DEBRIS·🇨🇳 China

Запущен Nov 11, 2022 с Taiyuan Satellite Launch Center

Loading…

Ближайшие Пролёты (ближайшие 24 часа)

TLE

СвежийSource: Space-Track

Эпоха: Sep 13, 2026, 16:46 UTC

1 56600U 22151ADY 26256.69913067  .00042898  00000-0  28304-2 0  9990
2 56600  98.6181 344.2374 0031619 301.5382  58.2756 15.06899237189844

Отслеживайте CZ-6A DEB в реальном времени с AllMySat

Download on the App Store